Find OneWeb SL0544

NORAD ID: 55144 Int'l Des: 2023-004 Owner: ONEWEBN Country: UK Constellation: oneweb operational
又名: ONEWEB-0544 spacetrack, celestrak
LEOCIRCULARPOLARONEWEB_TYPE

当前视图

正在加载3D地球...

About OneWeb SL0544

OneWeb SL0544 (NORAD 55144) is a oneweb constellation satellite launched Jan 10, 2023 by ONEWEBN of UK. It operates in LEO, CIRCULAR, POLAR, ONEWEB_TYPE orbit with a mass of 148.00 kg.

即将过境

Passes for default location (London). Set your location on the main map for personalized predictions.

高度历史

Loading altitude history...

两行轨道根数

1 55144U 23004E 26265.88605634 .00000022 00000-0 22546-4 0 9996
2 55144 87.9146 316.0516 0001770 94.4196 265.7139 13.18687458182573
Epoch: Sep 22, 2026 • Age: 8 hours

当前状态

高度 1195.5 km
远地点 / 近地点 N/A
速度 7.26 km/s
星下点 44.56°N, 53.36°E
发射日期 Jan 10, 2023
运行时间 3.7 years
类型 internet

技术详情

分类 Payload
质量 148.00 kg
干质量 140.00 kg
长度 1.30 m
直径 1.00 m
跨度 5.00 m
形状 ? Trapezoid+2 pan
制造商 ONEWUS
平台类型 ARROW
阶段状态 In Orbit
所有者/国家 ONEWEBN/UK

Most Searched